Location: ?ern� Novina
(50.6762°N, 14.8696°E)
Time: 12:45:14
(UTC+00:00)

Cosmos 2366 rocket - Pass Details

Date: 03 March 2021
Orbit: 954 x 998 km, 82.9° (Epoch: 16 April)

Event Time Altitude Azimuth Distance (km) Brightness Sun altitude
Rises 18:21:57 0° 169° (SSE) 3,684 6.8 -16.0°
Reaches altitude 10° 18:24:31 10° 164° (SSE) 2,745 6.1 -16.4°
Maximum altitude 18:30:34 50° 91° (E) 1,246 4.2 -17.4°
Drops below altitude 10° 18:36:40 10° 18° (NNE) 2,778 6.3 -18.3°
Sets 18:39:17 0° 14° (NNE) 3,733 7.1 -18.7°
